Time,TemperatureF,DewpointF,PressureIn,WindDirection,WindDirectionDegrees,WindSpeedMPH,WindSpeedGustMPH,Humidity,HourlyPrecipIn,Conditions,Clouds,dailyrainin,SolarRadiationWatts/m^2,SoftwareType,DateUTC
2013-02-13 00:01:00,49.6,43.4,29.95,NNE,18,0.0,1.0,79,0.00,CLR,,0.00,0.0,WeatherDisplay:10.37,2013-02-13 05:01:00,
2013-02-13 00:06:00,49.5,42.9,29.96,NNE,15,0.0,1.0,78,0.00,CLR,,0.00,0.0,WeatherDisplay:10.37,2013-02-13 05:06:00,
2013-02-13 00:11:00,49.5,42.2,29.96,NNE,17,1.0,3.0,76,0.00,CLR,,0.00,0.0,WeatherDisplay:10.37,2013-02-13 05:11:00,
2013-02-13 00:16:00,49.4,40.7,29.96,NNE,24,0.0,1.0,72,0.00,CLR,,0.00,0.0,WeatherDisplay:10.37,2013-02-13 05:16:00,
2013-02-13 00:21:00,49.4,40.7,29.96,NNE,31,0.0,0.0,72,0.00,CLR,,0.00,0.0,WeatherDisplay:10.37,2013-02-13 05:21:00,
2013-02-13 00:31:00,49.5,40.5,29.94,NNE,31,0.0,1.0,71,0.00,CLR,,0.00,0.0,WeatherDisplay:10.37,2013-02-13 05:31:00,
2013-02-13 00:41:00,49.6,40.6,29.92,NNE,31,0.0,1.0,71,0.00,CLR,,0.00,0.0,WeatherDisplay:10.37,2013-02-13 05:41:00,
2013-02-13 00:51:00,49.6,40.6,29.91,NE,35,3.0,5.0,71,0.00,CLR,,0.00,0.0,WeatherDisplay:10.37,2013-02-13 05:51:00,
2013-02-13 01:01:00,49.5,40.5,29.91,NNE,25,2.0,5.0,71,0.00,CLR,,0.00,0.0,WeatherDisplay:10.37,2013-02-13 06:01:00,
2013-02-13 01:11:00,49.3,40.7,29.89,NNE,29,0.0,4.0,72,0.00,CLR,,0.00,0.0,WeatherDisplay:10.37,2013-02-13 06:11:00,
2013-02-13 01:21:00,49.1,40.8,29.88,NE,35,0.0,1.0,73,0.00,CLR,,0.00,0.0,WeatherDisplay:10.37,2013-02-13 06:21:00,
2013-02-13 01:31:00,48.9,40.3,29.90,NE,36,0.0,1.0,72,0.00,CLR,,0.00,0.0,WeatherDisplay:10.37,2013-02-13 06:31:00,
2013-02-13 01:36:00,48.8,40.5,29.91,NNE,31,6.0,9.0,73,0.00,CLR,,0.00,0.0,WeatherDisplay:10.37,2013-02-13 06:36:00,
2013-02-13 01:41:00,48.7,41.4,29.91,NNE,28,3.0,9.0,76,0.00,RA,,0.01,0.0,WeatherDisplay:10.37,2013-02-13 06:41:00,
2013-02-13 01:46:00,48.3,42.1,29.92,NNE,26,2.0,7.0,79,0.00,RA,,0.02,0.0,WeatherDisplay:10.37,2013-02-13 06:46:00,
2013-02-13 01:51:00,47.9,42.4,29.91,NNE,25,3.0,5.0,81,0.00,RA,,0.03,0.0,WeatherDisplay:10.37,2013-02-13 06:51:00,
2013-02-13 02:01:00,47.2,42.9,29.91,NNE,21,2.0,7.0,85,0.00,RA,,0.04,0.0,WeatherDisplay:10.37,2013-02-13 07:01:00,
2013-02-13 02:11:00,46.6,42.6,29.90,NNE,29,3.0,6.0,86,0.00,CLR,,0.04,0.0,WeatherDisplay:10.37,2013-02-13 07:11:00,
2013-02-13 02:16:00,46.3,42.6,29.88,NNE,32,0.0,5.0,87,0.00,CLR,,0.04,0.0,WeatherDisplay:10.37,2013-02-13 07:16:00,
2013-02-13 02:21:00,46.0,42.4,29.88,NNE,29,0.0,4.0,87,0.00,CLR,,0.04,0.0,WeatherDisplay:10.37,2013-02-13 07:21:00,
2013-02-13 02:31:00,45.7,42.7,29.87,NNE,28,2.0,5.0,89,0.00,CLR,,0.04,0.0,WeatherDisplay:10.37,2013-02-13 07:31:00,
2013-02-13 02:41:00,45.4,42.6,29.85,North,11,0.0,2.0,90,0.00,CLR,,0.04,0.0,WeatherDisplay:10.37,2013-02-13 07:41:00,
2013-02-13 02:51:00,45.2,42.4,29.88,NNE,24,0.0,5.0,90,0.00,CLR,,0.04,0.0,WeatherDisplay:10.37,2013-02-13 07:51:00,
2013-02-13 02:56:00,45.1,42.3,29.86,NE,38,0.0,3.0,90,0.00,CLR,,0.04,0.0,WeatherDisplay:10.37,2013-02-13 07:56:00,
2013-02-13 03:06:00,45.0,42.5,29.86,North,11,0.0,2.0,91,0.01,RA,,0.06,0.0,WeatherDisplay:10.37,2013-02-13 08:06:00,
2013-02-13 03:11:00,44.9,42.4,29.85,North,11,0.0,0.0,91,0.00,RA,,0.06,0.0,WeatherDisplay:10.37,2013-02-13 08:11:00,
2013-02-13 03:21:00,44.8,42.4,29.85,NNE,20,0.0,4.0,91,0.00,CLR,,0.06,0.0,WeatherDisplay:10.37,2013-02-13 08:21:00,
2013-02-13 03:26:00,44.8,42.6,29.85,NNE,32,0.0,2.0,92,0.00,CLR,,0.06,0.0,WeatherDisplay:10.37,2013-02-13 08:26:00,
2013-02-13 03:31:00,44.7,42.5,29.86,NNE,29,1.0,3.0,92,0.00,CLR,,0.06,0.0,WeatherDisplay:10.37,2013-02-13 08:31:00,
2013-02-13 03:36:00,44.7,42.5,29.86,NNE,19,0.0,1.0,92,0.00,CLR,,0.06,0.0,WeatherDisplay:10.37,2013-02-13 08:36:00,
2013-02-13 03:41:00,44.6,42.4,29.86,NNE,18,0.0,2.0,92,0.00,CLR,,0.06,0.0,WeatherDisplay:10.37,2013-02-13 08:41:00,
2013-02-13 03:51:00,44.5,42.3,29.86,NNE,18,0.0,0.0,92,0.00,CLR,,0.06,0.0,WeatherDisplay:10.37,2013-02-13 08:51:00,
2013-02-13 04:01:00,44.4,42.5,29.85,NNE,18,0.0,0.0,93,0.00,RA,,0.07,0.0,WeatherDisplay:10.37,2013-02-13 09:01:00,
2013-02-13 04:11:00,44.3,42.4,29.85,NNE,18,0.0,0.0,93,0.00,CLR,,0.07,0.0,WeatherDisplay:10.37,2013-02-13 09:11:00,
2013-02-13 04:16:00,44.4,42.5,29.86,NNE,18,0.0,1.0,93,0.00,CLR,,0.07,0.0,WeatherDisplay:10.37,2013-02-13 09:16:00,
2013-02-13 04:21:00,44.4,42.5,29.85,NNE,18,0.0,1.0,93,0.00,CLR,,0.07,0.0,WeatherDisplay:10.37,2013-02-13 09:21:00,
2013-02-13 04:31:00,44.3,42.4,29.84,NNE,18,0.0,0.0,93,0.00,CLR,,0.07,0.0,WeatherDisplay:10.37,2013-02-13 09:31:00,
2013-02-13 04:36:00,44.2,42.3,29.84,NNE,18,0.0,0.0,93,0.00,CLR,,0.07,0.0,WeatherDisplay:10.37,2013-02-13 09:36:00,
2013-02-13 04:41:00,44.2,42.6,29.84,NNE,18,0.0,2.0,94,0.00,CLR,,0.07,0.0,WeatherDisplay:10.37,2013-02-13 09:41:00,
2013-02-13 04:46:00,44.1,42.5,29.84,NNE,18,0.0,1.0,94,0.00,CLR,,0.07,0.0,WeatherDisplay:10.37,2013-02-13 09:46:00,
2013-02-13 04:51:00,44.1,42.5,29.84,NNE,18,1.0,3.0,94,0.00,CLR,,0.07,0.0,WeatherDisplay:10.37,2013-02-13 09:51:00,
2013-02-13 04:56:00,44.2,42.6,29.84,NNE,18,0.0,0.0,94,0.00,CLR,,0.07,0.0,WeatherDisplay:10.37,2013-02-13 09:56:00,
2013-02-13 05:01:00,44.2,42.6,29.84,NNE,18,0.0,2.0,94,0.00,CLR,,0.07,0.0,WeatherDisplay:10.37,2013-02-13 10:01:00,
2013-02-13 05:06:00,44.1,42.5,29.83,NNE,18,0.0,2.0,94,0.00,CLR,,0.07,0.0,WeatherDisplay:10.37,2013-02-13 10:06:00,
2013-02-13 05:11:00,44.1,42.5,29.84,NNE,18,0.0,2.0,94,0.00,CLR,,0.07,0.0,WeatherDisplay:10.37,2013-02-13 10:11:00,
2013-02-13 05:21:00,44.0,42.4,29.83,NNE,18,0.0,0.0,94,0.00,CLR,,0.07,0.0,WeatherDisplay:10.37,2013-02-13 10:21:00,
2013-02-13 05:26:00,44.0,42.4,29.83,NNE,18,0.0,0.0,94,0.00,CLR,,0.07,0.0,WeatherDisplay:10.37,2013-02-13 10:26:00,
2013-02-13 05:31:00,43.9,42.3,29.84,NNE,18,0.0,0.0,94,0.00,CLR,,0.07,0.0,WeatherDisplay:10.37,2013-02-13 10:31:00,
2013-02-13 05:36:00,43.9,42.3,29.84,NNE,18,0.0,1.0,94,0.00,CLR,,0.07,0.0,WeatherDisplay:10.37,2013-02-13 10:36:00,
2013-02-13 05:41:00,44.0,42.7,29.84,NNE,22,0.0,4.0,95,0.00,CLR,,0.07,0.0,WeatherDisplay:10.37,2013-02-13 10:41:00,
2013-02-13 05:51:00,43.9,42.6,29.83,NNE,28,0.0,0.0,95,0.00,CLR,,0.07,0.0,WeatherDisplay:10.37,2013-02-13 10:51:00,
2013-02-13 06:01:00,43.8,42.5,29.83,NNE,28,0.0,0.0,95,0.00,CLR,,0.07,0.0,WeatherDisplay:10.37,2013-02-13 11:01:00,
2013-02-13 06:06:00,43.8,42.5,29.83,NNE,28,0.0,0.0,95,0.00,CLR,,0.07,0.0,WeatherDisplay:10.37,2013-02-13 11:06:00,
2013-02-13 06:11:00,43.8,42.5,29.82,NNE,28,0.0,0.0,95,0.00,CLR,,0.07,0.0,WeatherDisplay:10.37,2013-02-13 11:11:00,
2013-02-13 06:21:00,43.7,42.4,29.81,NNE,28,0.0,0.0,95,0.00,CLR,,0.07,0.0,WeatherDisplay:10.37,2013-02-13 11:21:00,
2013-02-13 06:31:00,43.7,42.4,29.83,NNE,28,0.0,0.0,95,0.00,CLR,,0.07,0.0,WeatherDisplay:10.37,2013-02-13 11:31:00,
2013-02-13 06:41:00,43.7,42.4,29.84,NNE,28,0.0,1.0,95,0.00,CLR,,0.07,0.0,WeatherDisplay:10.37,2013-02-13 11:41:00,
2013-02-13 06:51:00,43.6,42.3,29.83,NNE,28,0.0,0.0,95,0.00,CLR,,0.07,0.0,WeatherDisplay:10.37,2013-02-13 11:51:00,
2013-02-13 06:56:00,43.6,42.3,29.84,NNE,28,0.0,0.0,95,0.00,CLR,,0.07,0.0,WeatherDisplay:10.37,2013-02-13 11:56:00,
2013-02-13 07:06:00,43.6,42.3,29.82,NNE,28,0.0,0.0,95,0.00,CLR,,0.07,0.0,WeatherDisplay:10.37,2013-02-13 12:06:00,
2013-02-13 07:11:00,43.7,42.3,29.83,NNE,28,0.0,1.0,95,0.00,CLR,,0.07,0.0,WeatherDisplay:10.37,2013-02-13 12:11:00,
2013-02-13 07:21:00,43.8,42.5,29.81,NNE,12,0.0,3.0,95,0.00,CLR,,0.07,0.0,WeatherDisplay:10.37,2013-02-13 12:21:00,
2013-02-13 07:31:00,43.7,42.4,29.81,North,11,0.0,0.0,95,0.00,CLR,,0.07,0.0,WeatherDisplay:10.37,2013-02-13 12:31:00,
2013-02-13 07:41:00,43.8,42.5,29.83,North,11,0.0,0.0,95,0.00,CLR,,0.07,9.0,WeatherDisplay:10.37,2013-02-13 12:41:00,
2013-02-13 07:51:00,43.7,42.4,29.82,North,11,0.0,1.0,95,0.00,CLR,,0.07,7.0,WeatherDisplay:10.37,2013-02-13 12:51:00,
2013-02-13 07:56:00,43.7,42.6,29.80,North,11,0.0,0.0,96,0.00,CLR,,0.07,12.0,WeatherDisplay:10.37,2013-02-13 12:56:00,
2013-02-13 08:01:00,43.7,42.6,29.81,North,11,0.0,0.0,96,0.00,CLR,,0.07,16.0,WeatherDisplay:10.37,2013-02-13 13:01:00,
2013-02-13 08:06:00,43.8,42.7,29.81,North,11,0.0,3.0,96,0.00,CLR,,0.07,18.0,WeatherDisplay:10.37,2013-02-13 13:06:00,
2013-02-13 08:11:00,43.8,42.7,29.83,North,11,0.0,1.0,96,0.00,CLR,,0.07,18.0,WeatherDisplay:10.37,2013-02-13 13:11:00,
2013-02-13 08:21:00,43.8,42.7,29.83,North,11,0.0,0.0,96,0.00,CLR,,0.07,14.0,WeatherDisplay:10.37,2013-02-13 13:21:00,
2013-02-13 08:31:00,43.8,42.7,29.82,North,11,0.0,1.0,96,0.00,CLR,,0.07,19.0,WeatherDisplay:10.37,2013-02-13 13:31:00,
2013-02-13 08:36:00,43.8,42.7,29.82,North,11,1.0,3.0,96,0.00,CLR,,0.07,23.0,WeatherDisplay:10.37,2013-02-13 13:36:00,
2013-02-13 08:41:00,43.9,42.8,29.83,NNE,17,2.0,4.0,96,0.00,CLR,,0.07,14.0,WeatherDisplay:10.37,2013-02-13 13:41:00,
2013-02-13 08:51:00,44.0,42.9,29.81,NNE,31,0.0,5.0,96,0.00,CLR,,0.07,39.0,WeatherDisplay:10.37,2013-02-13 13:51:00,
2013-02-13 09:01:00,44.1,43.0,29.80,NNE,26,0.0,2.0,96,0.00,OVC,,0.07,62.0,WeatherDisplay:10.37,2013-02-13 14:01:00,
2013-02-13 09:06:00,44.2,43.1,29.80,NNE,26,0.0,2.0,96,0.00,OVC,,0.07,44.0,WeatherDisplay:10.37,2013-02-13 14:06:00,
2013-02-13 09:11:00,44.2,43.1,29.78,NE,35,1.0,3.0,96,0.00,OVC,,0.07,33.0,WeatherDisplay:10.37,2013-02-13 14:11:00,
2013-02-13 09:21:00,44.1,43.0,29.79,NE,38,0.0,1.0,96,0.00,OVC,,0.07,35.0,WeatherDisplay:10.37,2013-02-13 14:21:00,
2013-02-13 09:26:00,44.1,43.0,29.78,NNE,32,0.0,1.0,96,0.00,OVC,,0.07,30.0,WeatherDisplay:10.37,2013-02-13 14:26:00,
2013-02-13 09:31:00,44.2,43.1,29.81,NNE,22,0.0,0.0,96,0.00,OVC,,0.07,37.0,WeatherDisplay:10.37,2013-02-13 14:31:00,
2013-02-13 09:41:00,44.1,43.0,29.81,NNE,17,0.0,0.0,96,0.00,OVC,,0.07,23.0,WeatherDisplay:10.37,2013-02-13 14:41:00,
2013-02-13 09:51:00,44.1,43.0,29.80,NNE,17,0.0,0.0,96,0.00,OVC,,0.07,35.0,WeatherDisplay:10.37,2013-02-13 14:51:00,
2013-02-13 10:01:00,44.2,43.2,29.79,NNE,17,0.0,0.0,96,0.00,OVC,,0.07,42.0,WeatherDisplay:10.37,2013-02-13 15:01:00,
2013-02-13 10:06:00,44.3,43.2,29.79,NNE,17,0.0,0.0,96,0.00,RA,,0.08,47.0,WeatherDisplay:10.37,2013-02-13 15:06:00,
2013-02-13 10:11:00,44.3,43.2,29.79,NNE,17,0.0,1.0,96,0.00,RA,,0.08,69.0,WeatherDisplay:10.37,2013-02-13 15:11:00,
2013-02-13 10:21:00,44.4,43.3,29.80,NNE,17,0.0,1.0,96,0.00,OVC,,0.08,49.0,WeatherDisplay:10.37,2013-02-13 15:21:00,
2013-02-13 10:26:00,44.4,43.3,29.79,NNE,17,0.0,1.0,96,0.00,OVC,,0.08,53.0,WeatherDisplay:10.37,2013-02-13 15:26:00,
2013-02-13 10:31:00,44.5,43.4,29.78,NNE,17,0.0,0.0,96,0.00,OVC,,0.08,56.0,WeatherDisplay:10.37,2013-02-13 15:31:00,
2013-02-13 10:41:00,44.5,43.4,29.78,NNE,17,0.0,0.0,96,0.00,OVC,,0.08,47.0,WeatherDisplay:10.37,2013-02-13 15:41:00,
2013-02-13 10:46:00,44.5,43.4,29.79,NNE,17,0.0,1.0,96,0.00,OVC,,0.08,35.0,WeatherDisplay:10.37,2013-02-13 15:46:00,
2013-02-13 10:51:00,44.5,43.4,29.79,NNE,17,0.0,0.0,96,0.00,OVC,,0.08,37.0,WeatherDisplay:10.37,2013-02-13 15:51:00,
2013-02-13 11:01:00,44.5,43.4,29.78,NNE,17,0.0,0.0,96,0.00,OVC,,0.08,79.0,WeatherDisplay:10.37,2013-02-13 16:01:00,
2013-02-13 11:06:00,44.5,43.4,29.77,NNE,17,0.0,2.0,96,0.00,OVC,,0.08,69.0,WeatherDisplay:10.37,2013-02-13 16:06:00,
2013-02-13 11:11:00,44.6,43.5,29.76,NNE,17,0.0,0.0,96,0.00,OVC,,0.08,111.0,WeatherDisplay:10.37,2013-02-13 16:11:00,
2013-02-13 11:21:00,44.8,44.0,29.76,NNE,17,0.0,3.0,97,0.00,OVC,,0.08,76.0,WeatherDisplay:10.37,2013-02-13 16:21:00,
2013-02-13 11:31:00,44.8,43.7,29.77,NNE,17,0.0,0.0,96,0.00,OVC,,0.08,74.0,WeatherDisplay:10.37,2013-02-13 16:31:00,
2013-02-13 11:41:00,44.8,43.7,29.75,NNE,17,0.0,0.0,96,0.00,OVC,,0.08,83.0,WeatherDisplay:10.37,2013-02-13 16:41:00,
2013-02-13 11:46:00,44.9,43.8,29.72,NNE,17,0.0,0.0,96,0.00,OVC,,0.08,93.0,WeatherDisplay:10.37,2013-02-13 16:46:00,
2013-02-13 11:51:00,44.9,43.8,29.75,NNE,17,2.0,4.0,96,0.00,OVC,,0.08,72.0,WeatherDisplay:10.37,2013-02-13 16:51:00,
2013-02-13 11:56:00,44.9,43.8,29.76,NNE,17,0.0,0.0,96,0.00,OVC,,0.08,58.0,WeatherDisplay:10.37,2013-02-13 16:56:00,
2013-02-13 12:06:00,45.0,43.9,29.73,NNE,17,0.0,1.0,96,0.00,OVC,,0.08,88.0,WeatherDisplay:10.37,2013-02-13 17:06:00,
2013-02-13 12:11:00,45.0,43.9,29.74,NNE,17,0.0,2.0,96,0.00,OVC,,0.08,79.0,WeatherDisplay:10.37,2013-02-13 17:11:00,
2013-02-13 12:21:00,45.1,44.0,29.72,NNE,17,0.0,0.0,96,0.00,CLR,,0.08,84.0,WeatherDisplay:10.37,2013-02-13 17:21:00,
2013-02-13 12:31:00,45.3,44.5,29.71,NNE,17,0.0,0.0,97,0.01,RA,,0.09,63.0,WeatherDisplay:10.37,2013-02-13 17:31:00,
2013-02-13 12:41:00,45.4,44.6,29.74,NNE,17,0.0,1.0,97,0.00,CLR,,0.09,54.0,WeatherDisplay:10.37,2013-02-13 17:41:00,
2013-02-13 12:51:00,45.4,44.6,29.71,West,275,0.0,1.0,97,0.00,CLR,,0.09,116.0,WeatherDisplay:10.37,2013-02-13 17:51:00,
2013-02-13 13:01:00,45.5,44.7,29.71,West,273,0.0,0.0,97,0.00,CLR,,0.09,153.0,WeatherDisplay:10.37,2013-02-13 18:01:00,
2013-02-13 13:06:00,45.5,44.7,29.70,West,273,0.0,0.0,97,0.00,CLR,,0.09,128.0,WeatherDisplay:10.37,2013-02-13 18:06:00,
2013-02-13 13:11:00,45.3,44.2,29.68,West,273,0.0,0.0,96,0.00,CLR,,0.09,114.0,WeatherDisplay:10.37,2013-02-13 18:11:00,
2013-02-13 13:16:00,45.2,44.1,29.67,West,273,0.0,0.0,96,0.00,SCT,,0.09,100.0,WeatherDisplay:10.37,2013-02-13 18:16:00,
2013-02-13 13:21:00,45.3,44.2,29.69,West,273,0.0,1.0,96,0.00,SCT,,0.09,84.0,WeatherDisplay:10.37,2013-02-13 18:21:00,
2013-02-13 13:31:00,45.8,45.0,29.68,West,273,0.0,0.0,97,0.00,BKN,,0.09,40.0,WeatherDisplay:10.37,2013-02-13 18:31:00,
2013-02-13 13:41:00,45.8,44.7,29.68,West,272,0.0,2.0,96,0.00,BKN,,0.09,74.0,WeatherDisplay:10.37,2013-02-13 18:41:00,
2013-02-13 13:51:00,45.8,44.7,29.68,West,271,0.0,0.0,96,0.00,BKN,,0.09,81.0,WeatherDisplay:10.37,2013-02-13 18:51:00,
2013-02-13 14:01:00,45.8,44.7,29.69,West,272,0.0,4.0,96,0.00,BKN,,0.09,65.0,WeatherDisplay:10.37,2013-02-13 19:01:00,
2013-02-13 14:06:00,45.8,44.7,29.69,West,275,0.0,4.0,96,0.00,BKN,,0.09,69.0,WeatherDisplay:10.37,2013-02-13 19:06:00,
2013-02-13 14:11:00,45.7,44.6,29.67,West,277,0.0,1.0,96,0.00,BKN,,0.09,81.0,WeatherDisplay:10.37,2013-02-13 19:11:00,
2013-02-13 14:21:00,45.8,44.7,29.67,West,277,0.0,0.0,96,0.00,BKN,,0.09,51.0,WeatherDisplay:10.37,2013-02-13 19:21:00,
2013-02-13 14:31:00,45.9,44.8,29.68,West,277,0.0,1.0,96,0.00,BKN,,0.09,35.0,WeatherDisplay:10.37,2013-02-13 19:31:00,
2013-02-13 14:41:00,46.0,44.9,29.68,West,277,0.0,0.0,96,0.00,BKN,,0.09,93.0,WeatherDisplay:10.37,2013-02-13 19:41:00,
2013-02-13 14:51:00,46.2,45.1,29.67,West,277,0.0,4.0,96,0.00,BKN,,0.09,72.0,WeatherDisplay:10.37,2013-02-13 19:51:00,
2013-02-13 15:01:00,46.3,45.5,29.67,WSW,256,0.0,0.0,97,0.00,BKN,,0.09,54.0,WeatherDisplay:10.37,2013-02-13 20:01:00,
2013-02-13 15:06:00,46.4,45.6,29.67,WSW,255,0.0,2.0,97,0.00,BKN,,0.09,67.0,WeatherDisplay:10.37,2013-02-13 20:06:00,
2013-02-13 15:11:00,46.4,45.6,29.68,West,265,0.0,1.0,97,0.00,BKN,,0.09,46.0,WeatherDisplay:10.37,2013-02-13 20:11:00,
2013-02-13 15:21:00,46.5,45.7,29.68,West,266,1.0,4.0,97,0.00,BKN,,0.09,44.0,WeatherDisplay:10.37,2013-02-13 20:21:00,
2013-02-13 15:31:00,46.5,45.7,29.68,WSW,254,0.0,0.0,97,0.00,BKN,,0.09,42.0,WeatherDisplay:10.37,2013-02-13 20:31:00,
2013-02-13 15:41:00,46.5,45.7,29.68,WSW,256,0.0,1.0,97,0.00,BKN,,0.09,46.0,WeatherDisplay:10.37,2013-02-13 20:41:00,
2013-02-13 15:51:00,46.6,45.8,29.68,WNW,292,0.0,1.0,97,0.00,OVC,,0.09,30.0,WeatherDisplay:10.37,2013-02-13 20:51:00,
2013-02-13 15:56:00,46.7,45.9,29.68,West,280,2.0,5.0,97,0.00,OVC,,0.09,18.0,WeatherDisplay:10.37,2013-02-13 20:56:00,
2013-02-13 16:06:00,46.7,45.9,29.69,West,263,0.0,7.0,97,0.00,OVC,,0.09,32.0,WeatherDisplay:10.37,2013-02-13 21:06:00,
2013-02-13 16:11:00,46.7,45.9,29.68,West,265,0.0,4.0,97,0.00,OVC,,0.09,28.0,WeatherDisplay:10.37,2013-02-13 21:11:00,
2013-02-13 16:21:00,46.8,46.0,29.68,West,261,0.0,4.0,97,0.00,BKN,,0.09,35.0,WeatherDisplay:10.37,2013-02-13 21:21:00,
2013-02-13 16:31:00,46.8,46.0,29.69,WNW,284,0.0,3.0,97,0.00,OVC,,0.09,16.0,WeatherDisplay:10.37,2013-02-13 21:31:00,
2013-02-13 16:41:00,46.8,46.0,29.70,WSW,239,0.0,6.0,97,0.00,OVC,,0.09,23.0,WeatherDisplay:10.37,2013-02-13 21:41:00,
2013-02-13 16:51:00,46.9,45.8,29.70,WSW,238,0.0,4.0,96,0.00,OVC,,0.09,25.0,WeatherDisplay:10.37,2013-02-13 21:51:00,
2013-02-13 16:56:00,46.9,45.8,29.70,West,259,0.0,4.0,96,0.00,OVC,,0.09,19.0,WeatherDisplay:10.37,2013-02-13 21:56:00,
2013-02-13 17:01:00,46.9,45.8,29.70,West,260,0.0,2.0,96,0.00,CLR,,0.09,21.0,WeatherDisplay:10.37,2013-02-13 22:01:00,
2013-02-13 17:06:00,46.9,45.8,29.70,SW,221,0.0,7.0,96,0.00,CLR,,0.09,21.0,WeatherDisplay:10.37,2013-02-13 22:06:00,
2013-02-13 17:11:00,47.0,45.9,29.69,WSW,241,1.0,5.0,96,0.00,CLR,,0.09,25.0,WeatherDisplay:10.37,2013-02-13 22:11:00,
2013-02-13 17:21:00,47.1,46.0,29.70,West,273,0.0,1.0,96,0.00,BKN,,0.09,46.0,WeatherDisplay:10.37,2013-02-13 22:21:00,
2013-02-13 17:31:00,47.2,46.1,29.70,West,269,0.0,4.0,96,0.00,CLR,,0.09,30.0,WeatherDisplay:10.37,2013-02-13 22:31:00,
2013-02-13 17:41:00,47.3,46.2,29.71,WSW,250,0.0,1.0,96,0.00,CLR,,0.09,35.0,WeatherDisplay:10.37,2013-02-13 22:41:00,
2013-02-13 17:51:00,47.4,46.3,29.72,WSW,247,0.0,4.0,96,0.00,CLR,,0.09,21.0,WeatherDisplay:10.37,2013-02-13 22:51:00,
2013-02-13 17:56:00,47.4,46.3,29.72,SW,232,0.0,2.0,96,0.00,CLR,,0.09,19.0,WeatherDisplay:10.37,2013-02-13 22:56:00,
2013-02-13 18:06:00,47.4,46.0,29.73,SW,236,0.0,2.0,95,0.00,CLR,,0.09,14.0,WeatherDisplay:10.37,2013-02-13 23:06:00,
2013-02-13 18:11:00,47.4,46.0,29.73,WSW,239,0.0,2.0,95,0.00,CLR,,0.09,5.0,WeatherDisplay:10.37,2013-02-13 23:11:00,
2013-02-13 18:21:00,47.3,45.9,29.73,West,266,0.0,4.0,95,0.00,CLR,,0.09,0.0,WeatherDisplay:10.37,2013-02-13 23:21:00,
2013-02-13 18:31:00,47.2,45.8,29.74,West,267,0.0,2.0,95,0.00,CLR,,0.09,0.0,WeatherDisplay:10.37,2013-02-13 23:31:00,
2013-02-13 18:41:00,47.1,45.7,29.74,West,261,0.0,2.0,95,0.00,CLR,,0.09,0.0,WeatherDisplay:10.37,2013-02-13 23:41:00,
2013-02-13 18:51:00,47.0,45.6,29.75,West,260,0.0,2.0,95,0.00,CLR,,0.09,0.0,WeatherDisplay:10.37,2013-02-13 23:51:00,
2013-02-13 18:56:00,47.0,45.6,29.76,WSW,252,0.0,1.0,95,0.00,CLR,,0.09,0.0,WeatherDisplay:10.37,2013-02-13 23:56:00,
2013-02-13 19:01:00,46.9,45.5,29.76,WSW,250,0.0,0.0,95,0.00,CLR,,0.09,0.0,WeatherDisplay:10.37,2013-02-14 00:01:00,
2013-02-13 19:06:00,46.9,45.5,29.76,WSW,253,0.0,3.0,95,0.00,CLR,,0.09,0.0,WeatherDisplay:10.37,2013-02-14 00:06:00,
2013-02-13 19:16:00,46.8,45.4,29.77,West,263,0.0,3.0,95,0.00,CLR,,0.09,0.0,WeatherDisplay:10.37,2013-02-14 00:16:00,
2013-02-13 19:21:00,46.7,45.3,29.77,West,263,0.0,1.0,95,0.00,CLR,,0.09,0.0,WeatherDisplay:10.37,2013-02-14 00:21:00,
2013-02-13 19:31:00,46.6,45.2,29.78,West,263,0.0,3.0,95,0.00,CLR,,0.09,0.0,WeatherDisplay:10.37,2013-02-14 00:31:00,
2013-02-13 19:46:00,46.6,45.2,29.78,WNW,292,1.0,5.0,95,0.00,CLR,,0.09,0.0,WeatherDisplay:10.37,2013-02-14 00:46:00,
2013-02-13 19:51:00,46.5,45.2,29.79,WNW,287,0.0,4.0,95,0.00,CLR,,0.09,0.0,WeatherDisplay:10.37,2013-02-14 00:51:00,
2013-02-13 19:56:00,46.5,45.1,29.79,WNW,289,1.0,7.0,95,0.00,CLR,,0.09,0.0,WeatherDisplay:10.37,2013-02-14 00:56:00,
2013-02-13 20:01:00,46.5,45.1,29.79,WNW,292,0.0,2.0,95,0.00,CLR,,0.09,0.0,WeatherDisplay:10.37,2013-02-14 01:01:00,
2013-02-13 20:06:00,46.5,45.1,29.79,North,351,1.0,5.0,95,0.00,CLR,,0.09,0.0,WeatherDisplay:10.37,2013-02-14 01:06:00,
2013-02-13 20:11:00,46.4,45.1,29.80,North,359,2.0,8.0,95,0.00,CLR,,0.09,0.0,WeatherDisplay:10.37,2013-02-14 01:11:00,
2013-02-13 20:21:00,46.4,45.0,29.80,NNW,337,1.0,7.0,95,0.00,CLR,,0.09,0.0,WeatherDisplay:10.37,2013-02-14 01:21:00,
2013-02-13 20:31:00,46.0,44.1,29.80,NNW,341,0.0,5.0,93,0.00,CLR,,0.09,0.0,WeatherDisplay:10.37,2013-02-14 01:31:00,
2013-02-13 20:41:00,45.7,42.9,29.81,NW,324,1.0,7.0,90,0.00,CLR,,0.09,0.0,WeatherDisplay:10.37,2013-02-14 01:41:00,
2013-02-13 20:51:00,45.7,42.1,29.81,NNW,345,1.0,6.0,87,0.00,CLR,,0.09,0.0,WeatherDisplay:10.37,2013-02-14 01:51:00,
2013-02-13 21:01:00,45.7,41.4,29.82,NW,308,0.0,6.0,85,0.00,CLR,,0.09,0.0,WeatherDisplay:10.37,2013-02-14 02:01:00,
2013-02-13 21:06:00,45.6,41.0,29.82,WNW,303,1.0,4.0,84,0.00,CLR,,0.09,0.0,WeatherDisplay:10.37,2013-02-14 02:06:00,
2013-02-13 21:11:00,45.4,40.5,29.82,NNW,338,0.0,6.0,83,0.00,CLR,,0.09,0.0,WeatherDisplay:10.37,2013-02-14 02:11:00,
2013-02-13 21:21:00,45.2,40.0,29.83,NE,54,0.0,5.0,82,0.00,CLR,,0.09,0.0,WeatherDisplay:10.37,2013-02-14 02:21:00,
2013-02-13 21:31:00,45.0,39.5,29.83,NW,326,0.0,3.0,81,0.00,CLR,,0.09,0.0,WeatherDisplay:10.37,2013-02-14 02:31:00,
2013-02-13 21:41:00,44.7,39.2,29.84,NNW,331,0.0,7.0,81,0.00,CLR,,0.09,0.0,WeatherDisplay:10.37,2013-02-14 02:41:00,
2013-02-13 21:51:00,44.6,38.8,29.84,NNE,30,1.0,12.0,80,0.00,CLR,,0.09,0.0,WeatherDisplay:10.37,2013-02-14 02:51:00,
2013-02-13 22:01:00,44.6,38.5,29.84,NNE,28,0.0,9.0,79,0.00,CLR,,0.09,0.0,WeatherDisplay:10.37,2013-02-14 03:01:00,
2013-02-13 22:06:00,44.6,38.5,29.84,NNE,31,1.0,7.0,79,0.00,CLR,,0.09,0.0,WeatherDisplay:10.37,2013-02-14 03:06:00,
2013-02-13 22:11:00,44.6,38.2,29.85,NNE,21,1.0,6.0,78,0.00,CLR,,0.09,0.0,WeatherDisplay:10.37,2013-02-14 03:11:00,
2013-02-13 22:21:00,44.5,37.7,29.85,NNE,23,2.0,6.0,77,0.00,CLR,,0.09,0.0,WeatherDisplay:10.37,2013-02-14 03:21:00,
2013-02-13 22:31:00,44.4,37.0,29.86,North,11,3.0,9.0,75,0.00,CLR,,0.09,0.0,WeatherDisplay:10.37,2013-02-14 03:31:00,
2013-02-13 22:36:00,44.4,37.3,29.86,NNE,22,3.0,8.0,76,0.00,CLR,,0.09,0.0,WeatherDisplay:10.37,2013-02-14 03:36:00,
2013-02-13 22:41:00,44.4,37.0,29.86,NNE,30,1.0,7.0,75,0.00,CLR,,0.09,0.0,WeatherDisplay:10.37,2013-02-14 03:41:00,
2013-02-13 22:51:00,44.2,36.5,29.86,North,3,2.0,6.0,74,0.00,CLR,,0.09,0.0,WeatherDisplay:10.37,2013-02-14 03:51:00,
2013-02-13 23:01:00,44.1,36.7,29.87,NE,37,2.0,6.0,75,0.00,CLR,,0.09,0.0,WeatherDisplay:10.37,2013-02-14 04:01:00,
2013-02-13 23:06:00,44.0,36.6,29.87,NE,38,1.0,5.0,75,0.00,CLR,,0.09,0.0,WeatherDisplay:10.37,2013-02-14 04:06:00,
2013-02-13 23:11:00,43.9,36.8,29.87,NE,35,0.0,3.0,76,0.00,CLR,,0.09,0.0,WeatherDisplay:10.37,2013-02-14 04:11:00,
2013-02-13 23:16:00,43.8,36.7,29.87,NNE,30,1.0,5.0,76,0.00,CLR,,0.09,0.0,WeatherDisplay:10.37,2013-02-14 04:16:00,
2013-02-13 23:21:00,43.7,36.6,29.87,NE,37,0.0,5.0,76,0.00,CLR,,0.09,0.0,WeatherDisplay:10.37,2013-02-14 04:21:00,
2013-02-13 23:31:00,43.4,36.4,29.87,NNE,32,0.0,5.0,76,0.00,CLR,,0.09,0.0,WeatherDisplay:10.37,2013-02-14 04:31:00,
2013-02-13 23:41:00,43.3,35.9,29.88,NE,43,1.0,6.0,75,0.00,CLR,,0.09,0.0,WeatherDisplay:10.37,2013-02-14 04:41:00,
2013-02-13 23:51:00,43.1,36.4,29.88,NW,326,0.0,1.0,77,0.00,CLR,,0.09,0.0,WeatherDisplay:10.37,2013-02-14 04:51:00,